Theta_e
335 337 339 339 338 339 338 338 337 337 336 335 334 331 328 329 330 330 329 331 333 334 333 332 332 331 331 333 334 334 336 334 331 331 331 332 334 337 338 337 339 337 335 335 335 335 334 334 334 334 333 333 331 331 331 330 330 329 329 329 329 329 329 328 328 328 328 328 328 327 327 327 327 327 328 329 330 330 331 331 331 331 331 331 331
336 338 339 337 335 336 336 336 335 334 335 335 334 331 328 330 330 330 331 331 333 337 332 332 333 333 333 333 332 335 335 335 332 332 333 334 335 337 339 339 339 338 337 336 335 335 334 335 335 334 332 331 331 330 330 330 330 330 329 329 328 328 328 328 328 328 328 327 327 328 328 328 328 327 327 327 328 329 330 330 329 329 329 329 329
335 335 335 335 333 334 333 334 333 334 336 335 334 332 332 331 332 331 331 331 337 333 329 329 332 335 335 334 333 332 334 335 335 334 334 334 335 335 336 337 337 338 338 338 337 335 335 334 334 333 333 333 333 332 331 330 330 329 328 327 327 327 327 327 327 327 326 327 327 326 327 327 327 327 327 326 326 328 329 328 328 328 328 327 327
336 335 334 333 333 334 334 334 332 333 336 335 334 335 335 338 339 340 340 339 334 331 332 332 333 335 335 334 333 332 333 334 336 334 334 334 334 335 334 335 338 338 338 339 338 336 334 334 334 334 334 333 333 332 331 331 330 329 329 329 327 328 327 327 327 327 327 327 328 327 327 327 327 326 326 325 325 325 327 328 328 327 327 327 327
336 334 335 334 335 335 334 335 335 334 338 339 339 339 337 336 337 340 339 334 329 331 334 333 331 331 333 334 332 334 333 334 335 334 334 334 334 333 333 333 334 338 338 338 337 336 335 335 335 335 334 332 331 332 331 331 330 329 329 328 328 327 327 327 327 327 327 326 326 326 327 326 326 326 325 325 325 325 325 326 327 326 327 326 326
336 335 335 334 334 334 334 333 334 334 336 338 337 338 337 336 335 333 340 330 330 330 331 330 331 332 332 332 332 331 332 335 334 334 334 333 333 332 332 332 332 332 335 337 338 337 338 337 336 336 335 335 334 333 332 331 330 329 329 329 328 328 328 328 327 326 326 326 326 326 326 326 326 325 325 325 325 325 325 325 326 326 326 326 326
336 335 335 333 332 332 333 334 334 335 335 335 338 338 337 336 335 333 331 329 329 330 330 329 331 331 330 330 331 331 333 334 335 334 334 333 332 332 333 333 333 333 334 333 339 339 339 338 336 336 336 336 335 334 334 332 330 330 329 328 328 327 328 328 328 327 326 326 326 326 326 326 325 325 325 325 325 325 325 324 324 324 325 325 326
336 335 334 334 334 334 333 334 335 338 337 337 340 336 335 337 336 336 329 327 330 329 330 330 331 330 329 331 330 332 331 332 333 334 334 333 333 332 332 332 332 332 336 331 332 336 338 338 337 336 336 336 336 335 333 332 331 330 330 329 328 328 328 328 327 327 327 327 326 326 326 326 325 326 325 325 325 325 325 325 324 324 325 325 325
337 333 333 336 335 336 335 335 337 336 336 335 336 336 334 340 337 335 332 327 329 330 329 330 329 329 329 329 330 330 331 331 330 332 334 332 332 332 331 330 333 338 332 331 332 333 337 338 336 338 338 336 335 334 333 332 332 332 330 330 330 329 328 328 328 327 327 326 325 326 326 326 326 326 326 326 326 325 325 325 325 325 324 325 325
337 334 333 335 335 335 335 337 336 335 333 332 333 334 334 335 332 334 334 328 327 328 327 328 329 330 329 330 330 331 329 329 331 332 332 332 331 330 329 330 331 331 332 331 331 331 332 336 337 337 337 337 335 333 332 333 333 332 332 331 331 331 330 329 329 327 327 327 327 325 325 326 325 326 326 326 326 326 326 325 325 325 325 324 325
337 336 334 335 335 335 334 335 336 334 333 332 331 333 333 335 332 332 331 330 329 328 328 328 329 329 329 330 330 330 330 330 331 331 332 332 332 332 332 330 332 331 332 332 331 331 331 331 330 329 330 336 337 335 335 335 334 333 333 333 333 333 332 331 331 328 327 327 327 326 326 326 326 326 326 326 326 326 326 326 326 326 326 326 326
336 336 336 336 335 333 334 334 334 334 332 332 329 332 333 333 329 330 329 329 329 330 329 329 328 326 326 328 329 328 330 330 330 330 330 330 331 331 331 330 331 330 331 332 332 331 330 329 332 330 331 334 337 336 336 335 335 334 335 334 335 335 334 333 332 329 328 328 327 326 325 325 326 326 327 327 327 326 326 326 326 326 326 326 325
336 336 334 338 336 333 333 333 333 331 329 330 331 334 334 331 332 332 330 327 327 329 329 329 327 326 326 326 327 330 331 330 330 330 328 327 327 329 330 329 330 330 328 330 330 330 331 330 330 330 330 331 331 335 334 334 335 334 335 334 334 335 335 335 334 331 329 328 327 327 327 327 327 328 327 327 327 327 327 327 327 327 327 326 326
337 335 336 336 332 332 334 333 333 333 332 332 334 335 333 332 331 327 329 328 327 329 330 328 324 323 322 321 323 327 328 328 329 330 328 328 328 329 327 327 328 327 328 328 329 330 329 328 329 331 330 330 329 327 329 330 333 334 334 334 333 334 335 334 334 331 329 328 328 329 328 329 330 330 330 330 330 329 329 329 329 329 329 329 329
336 336 335 335 333 332 332 333 333 333 331 329 330 332 332 332 331 328 326 328 328 329 328 326 322 323 323 320 318 318 322 325 329 328 327 326 328 326 327 327 328 327 327 326 327 326 327 327 328 328 329 330 329 329 330 332 331 334 334 335 335 334 334 333 334 333 330 330 330 330 329 329 330 330 331 331 331 330 330 330 330 330 330 330 329
335 335 336 335 333 332 334 332 331 334 332 329 330 331 331 331 331 330 328 326 326 325 329 329 326 324 315 314 316 318 315 317 321 324 326 327 326 325 327 326 327 327 326 327 327 326 326 328 329 330 331 331 330 330 331 327 331 331 331 333 334 334 334 333 335 334 332 331 330 331 330 330 331 331 331 331 331 331 330 330 330 331 331 331 332
334 335 335 334 333 333 332 332 332 333 334 332 333 333 333 332 332 330 328 325 325 324 328 328 327 324 320 314 312 312 312 317 319 320 326 325 326 325 326 324 324 325 326 326 326 326 326 328 329 330 330 331 330 330 328 326 326 331 329 332 333 335 334 334 335 335 334 333 332 332 331 331 332 331 331 331 331 331 331 331 331 331 331 330 330
333 334 334 334 332 333 334 334 333 330 333 333 330 331 332 332 331 330 328 329 328 325 324 327 327 328 326 320 317 312 315 318 317 312 323 325 324 326 324 324 324 325 325 326 326 325 326 328 327 327 329 329 329 327 327 328 331 327 326 327 332 332 331 333 334 336 335 335 333 333 333 332 331 331 331 331 331 330 330 330 330 329 329 329 328
333 333 332 334 333 333 333 333 331 331 333 333 331 332 332 332 333 331 329 330 329 325 325 325 326 327 329 327 327 324 323 318 314 318 315 321 323 322 322 324 325 326 327 326 326 326 327 328 328 329 328 328 327 326 326 326 328 327 328 327 326 327 327 327 331 335 334 336 333 333 334 334 332 331 331 331 330 330 329 329 328 328 327 326 325
333 334 333 334 334 334 333 334 334 334 335 333 332 332 332 332 331 332 330 330 328 326 325 326 324 324 326 325 325 326 324 322 321 318 317 315 317 323 325 326 326 326 327 326 326 327 327 327 327 327 328 328 326 325 324 322 321 321 322 325 324 325 324 326 325 324 332 333 334 334 332 333 331 330 329 329 328 327 326 326 325 324 324 323 322
332 334 334 333 335 333 334 335 334 334 334 333 332 333 331 329 330 330 330 330 330 328 326 325 325 324 323 323 324 323 322 323 324 321 316 315 316 318 318 322 323 323 324 325 326 327 327 326 327 327 325 324 324 323 321 321 321 321 323 321 323 322 322 321 318 320 320 329 332 332 332 332 332 330 329 327 326 325 324 323 322 321 321 320 320
332 335 333 333 335 333 334 333 332 332 332 333 332 332 331 331 331 331 330 329 329 328 326 326 327 327 325 324 323 321 321 320 320 319 318 318 315 316 316 316 315 318 322 323 325 326 326 326 326 326 324 323 323 321 320 320 320 321 321 322 322 322 322 320 317 316 318 325 332 332 333 332 329 328 327 325 325 323 322 322 321 321 321 320 319
331 333 334 334 333 334 332 330 333 334 332 333 330 332 331 332 333 332 330 329 328 328 327 326 326 325 326 325 324 322 319 317 319 319 317 315 315 315 317 318 317 317 320 324 324 325 325 325 325 323 321 320 319 318 317 318 320 320 321 321 321 322 319 316 316 316 319 327 331 330 329 328 327 326 325 324 323 323 322 321 320 320 319 319 319
330 330 331 331 332 332 333 333 332 330 332 330 332 333 333 333 332 331 330 329 329 329 327 326 326 326 324 323 323 322 320 321 322 321 319 317 318 316 317 318 319 319 323 322 324 324 324 324 324 321 321 319 318 317 317 317 318 320 318 319 319 318 319 319 317 317 316 323 325 328 329 329 328 327 325 324 322 322 322 321 320 320 319 319 319
328 329 329 330 330 330 330 330 330 331 331 331 331 333 332 332 332 332 330 329 329 329 327 326 326 325 324 324 324 324 323 323 325 323 321 320 319 317 317 319 315 316 320 321 319 324 324 324 321 320 320 318 317 315 315 314 313 317 317 316 316 315 317 321 319 316 314 314 319 325 326 327 327 327 327 325 325 324 324 321 317 316 317 320 319
328 328 329 330 329 330 330 329 329 331 331 330 331 332 331 331 330 331 331 330 330 329 328 327 327 327 327 325 324 324 324 326 324 324 322 320 318 317 316 316 317 316 318 318 321 319 321 322 318 319 319 318 316 314 312 313 313 316 316 313 313 314 313 316 318 316 313 310 309 311 315 321 324 324 324 323 319 314 313 312 311 311 310 312 317
328 328 330 329 328 330 330 329 329 329 329 329 331 330 329 330 330 330 330 331 330 329 329 329 328 327 326 326 327 326 326 325 324 324 324 321 319 318 316 313 312 314 314 317 318 318 318 318 317 316 317 316 314 313 312 311 313 314 312 309 308 311 311 312 315 314 310 307 306 308 309 311 313 313 312 311 311 313 316 314 312 310 309 311 315
329 329 329 329 328 327 328 328 328 328 328 329 329 327 327 329 329 330 330 333 330 329 328 329 328 327 326 326 327 327 326 326 327 324 324 325 322 319 317 315 312 309 312 312 313 314 316 310 313 316 316 314 314 312 315 313 311 314 313 307 306 307 309 309 310 311 309 308 306 305 306 307 308 308 310 313 315 315 314 314 313 310 309 312 313
328 327 327 325 325 325 325 326 327 327 327 327 327 327 327 328 328 327 328 330 330 330 328 328 327 327 326 326 326 325 326 325 325 325 324 324 324 323 319 316 314 312 309 308 309 311 312 312 308 309 313 313 312 313 311 310 312 310 306 305 304 303 308 308 306 307 306 306 307 307 307 307 308 311 313 315 315 315 313 313 311 311 310 313 312
328 328 325 324 326 328 323 325 326 326 326 326 327 326 327 327 327 326 327 326 326 327 327 328 327 327 325 326 326 324 326 325 324 324 325 324 323 323 321 319 316 312 309 309 308 310 308 309 309 307 309 311 311 311 310 309 312 310 306 304 303 303 306 306 305 304 304 305 305 303 304 307 309 312 314 315 314 313 311 311 311 312 314 314 314
326 325 324 325 323 322 323 323 324 324 324 325 325 324 325 325 324 324 326 327 327 326 326 327 327 328 326 324 324 323 323 323 325 326 326 324 323 321 321 321 319 315 311 310 307 309 310 307 308 309 309 309 310 309 309 309 312 308 305 303 303 306 307 305 306 305 305 306 304 304 308 309 308 309 311 313 313 311 311 312 313 313 315 314 312
325 324 324 323 323 322 322 323 323 322 323 324 325 324 324 324 324 324 325 327 327 326 326 327 330 328 325 324 322 323 322 324 325 325 323 322 321 319 320 320 318 317 313 310 307 307 311 307 307 307 307 306 306 305 305 308 311 309 304 303 303 308 303 302 305 305 305 305 305 309 313 312 310 311 312 312 312 312 312 313 313 313 314 310 309
324 323 323 323 322 321 321 321 321 320 321 323 323 323 323 322 323 323 324 325 326 325 326 326 328 327 326 324 323 324 323 323 321 322 323 322 321 319 319 318 317 316 314 310 308 306 306 307 306 305 305 305 304 304 304 305 306 305 306 302 302 301 300 300 302 304 304 304 304 306 307 306 307 312 310 308 311 310 309 308 309 308 309 308 306
324 323 322 323 322 321 320 319 321 322 322 321 321 322 322 321 321 324 323 322 323 325 325 324 326 327 324 323 324 323 323 322 321 323 322 321 318 316 317 317 316 316 315 311 307 303 303 305 304 304 304 305 303 305 304 304 304 305 302 301 302 301 301 300 301 302 303 305 303 305 306 305 305 307 307 304 306 307 307 306 307 306 307 303 301
324 324 323 324 324 321 319 319 320 320 321 320 319 321 319 319 319 321 322 322 322 323 323 324 325 325 324 322 322 322 325 321 320 320 319 316 313 314 315 315 315 315 315 312 307 304 304 303 304 303 303 304 304 304 306 306 307 305 302 300 301 303 305 302 301 302 302 302 302 303 305 304 304 304 306 305 305 304 304 304 303 303 303 302 299
324 324 324 324 323 320 319 319 320 320 320 320 320 319 320 320 320 320 321 321 322 322 323 323 324 324 324 323 323 323 322 320 319 318 316 316 315 313 314 313 313 313 311 310 309 306 304 304 304 304 305 303 303 306 307 307 306 305 303 301 301 303 304 304 303 302 302 302 302 302 304 304 303 303 304 304 304 303 303 304 303 303 302 302 302
323 324 323 324 322 319 319 319 319 319 319 319 319 318 319 319 319 320 320 320 322 323 323 324 327 324 324 323 323 321 319 319 318 316 315 315 315 313 313 313 313 315 315 312 309 308 306 304 304 305 305 304 305 305 307 306 306 305 304 302 301 302 304 305 305 305 304 303 303 303 303 304 303 302 303 303 302 302 302 303 303 303 303 303 302
322 322 322 322 320 318 318 318 318 319 318 318 318 316 316 318 318 319 320 321 322 321 322 323 323 323 322 321 321 320 318 316 315 316 316 316 315 313 313 313 313 313 314 312 309 308 306 304 304 305 303 303 303 304 307 307 306 304 303 303 303 303 304 304 305 307 307 304 303 302 302 302 303 302 302 302 301 301 301 302 302 303 303 302 302
321 320 322 321 317 316 317 317 318 317 316 315 316 315 318 317 318 319 320 320 320 321 320 322 323 323 322 322 320 320 317 317 318 318 317 317 317 315 315 316 316 315 315 311 311 310 307 306 305 304 303 304 303 302 305 307 307 306 303 302 301 303 303 304 305 306 307 306 304 303 303 302 303 302 301 302 301 301 302 301 302 303 302 301 300
320 321 322 319 317 315 316 314 312 311 309 307 308 312 317 317 317 317 318 318 318 320 320 321 322 322 321 320 319 317 317 317 316 315 318 317 317 316 317 314 313 312 311 312 312 311 309 309 308 306 308 304 307 307 306 305 303 303 304 303 301 301 302 303 304 305 307 306 304 303 304 303 302 301 301 301 301 301 301 302 303 303 303 300 300
322 321 320 318 317 316 315 313 310 308 306 304 302 303 312 317 317 316 317 317 318 318 319 320 320 318 316 315 314 314 317 315 310 311 313 316 317 313 314 316 315 314 313 313 312 310 310 310 309 310 309 310 309 308 304 301 301 303 304 304 303 303 303 303 304 306 306 304 304 303 302 302 301 300 300 299 299 300 301 302 302 303 302 299 299
318 317 317 318 316 314 312 310 308 306 304 303 300 297 301 315 317 319 318 315 315 316 316 317 316 315 314 314 318 317 313 311 307 302 301 305 310 313 311 312 314 314 313 312 312 311 310 309 310 310 309 308 307 309 309 307 309 313 311 306 303 303 304 303 303 305 305 304 302 301 302 303 302 300 299 299 300 302 300 301 301 302 302 299 299
319 319 318 317 315 314 312 309 306 304 302 299 295 294 295 301 315 315 316 317 316 315 314 316 315 313 311 311 311 317 313 311 305 299 298 298 299 300 301 307 312 312 310 309 310 310 309 310 310 307 307 308 309 311 309 311 312 312 310 309 308 307 306 303 302 306 306 304 302 301 301 302 302 300 300 300 301 302 301 301 301 301 301 300 299
319 318 316 315 314 313 311 309 306 304 300 295 293 294 295 296 302 315 317 318 318 317 316 316 316 315 316 317 318 319 319 317 313 308 302 297 295 296 296 297 297 298 302 309 308 307 307 307 307 309 307 306 306 308 309 310 309 309 311 310 309 308 307 306 305 305 308 306 303 302 301 303 302 301 301 302 303 303 303 302 300 300 300 300 299
319 316 314 312 311 311 309 306 304 303 301 293 292 294 294 295 297 311 317 317 317 317 317 317 316 316 316 316 316 317 318 317 314 314 311 307 300 298 301 302 299 298 296 296 301 308 308 307 308 307 309 309 309 309 309 309 309 308 308 308 308 308 309 308 308 307 307 306 304 302 301 305 303 301 301 304 305 304 305 302 301 300 300 299 299
317 315 312 311 310 308 307 305 303 301 298 295 292 293 294 295 298 309 319 319 319 318 318 318 318 318 317 316 315 315 314 308 307 308 311 314 315 316 316 315 314 309 303 298 296 294 302 309 308 307 307 311 310 311 313 312 312 310 309 309 309 309 307 308 306 307 309 314 307 306 305 306 305 303 302 304 306 306 305 303 301 300 299 299 298
315 313 311 309 308 307 306 304 302 299 297 293 293 293 293 295 297 310 320 320 319 319 318 318 318 318 318 318 317 316 313 306 302 301 307 311 313 314 313 312 312 313 312 313 313 310 308 308 306 308 309 311 312 311 311 310 311 311 311 310 313 313 312 308 310 310 310 310 309 308 305 304 306 305 305 306 306 305 305 303 300 300 299 298 298
314 313 311 309 306 305 304 302 300 299 297 292 293 293 293 294 304 319 321 319 316 316 316 317 317 318 318 318 317 313 309 304 296 292 296 307 315 313 311 310 310 310 311 312 308 307 309 310 310 310 308 308 305 308 308 308 309 311 311 313 313 313 311 308 308 305 305 308 310 308 304 307 306 307 307 306 304 303 302 300 299 300 299 298 298
310 308 306 306 305 303 302 301 299 298 298 294 292 293 293 294 308 318 318 317 316 315 313 311 310 311 314 316 312 308 305 300 293 291 294 307 314 313 312 312 313 312 313 314 309 305 301 298 297 296 296 297 296 296 296 296 303 307 310 307 307 308 307 306 306 304 307 303 305 311 308 305 303 305 303 300 300 299 299 298 299 298 299 298 297
308 307 305 304 303 301 300 299 299 298 297 295 293 294 295 298 307 315 317 317 315 313 309 307 305 303 304 308 308 304 302 299 291 292 294 307 311 310 310 310 310 310 310 310 311 312 302 295 294 294 294 294 294 294 295 295 294 298 307 305 307 307 306 305 303 304 304 301 304 308 305 302 301 300 300 300 299 299 299 296 296 297 298 297 297
308 308 307 306 304 303 302 300 302 297 296 296 294 295 295 297 304 309 311 313 313 311 308 306 303 301 299 298 299 299 299 294 290 291 293 303 307 307 306 306 306 305 304 305 305 306 309 311 312 308 304 300 299 300 303 296 295 299 306 307 307 306 303 302 303 301 302 299 302 306 305 301 303 303 301 300 299 301 300 297 295 296 296 296 296
Wind_Speed
5 3 6 6 3 3 4 4 3 3 4 4 4 4 5 5 5 5 4 3 2 3 5 5 3 2 4 3 3 3 5 6 6 6 5 5 5 8 12 11 8 9 10 11 11 10 10 11 11 11 11 10 10 10 11 11 11 11 12 11 11 11 12 12 12 12 12 13 13 13 13 13 13 13 12 13 13 13 15 15 16 16 15 15 15
5 4 4 5 4 1 2 2 4 3 4 5 5 5 6 5 4 3 4 3 3 0 5 6 4 4 3 3 3 3 4 5 6 5 5 5 5 6 11 9 8 8 8 9 11 11 10 10 11 11 11 10 10 9 10 10 11 11 11 11 10 11 11 12 12 12 12 12 13 13 13 13 13 13 13 12 13 13 14 15 15 14 14 14 14
5 4 4 6 5 5 4 1 3 2 5 7 7 6 5 5 5 5 5 5 3 8 5 4 2 3 4 4 2 2 4 4 6 5 5 5 5 4 7 11 9 7 6 6 9 10 11 10 10 10 10 10 10 10 10 10 10 11 10 10 10 11 11 11 12 11 11 11 11 12 12 13 13 12 13 12 12 13 14 15 14 13 14 14 14
5 4 5 5 5 5 3 2 3 2 2 4 4 2 2 3 4 4 3 5 10 4 1 3 4 3 4 4 2 3 4 3 5 6 5 5 5 5 5 5 8 7 6 6 9 10 10 10 10 10 9 9 9 10 10 10 10 10 11 11 10 10 10 11 11 11 12 12 12 12 12 12 13 13 13 13 12 12 13 14 14 14 14 15 14
4 4 5 5 4 6 5 2 2 1 4 2 3 2 2 2 1 2 2 12 7 1 1 3 3 3 4 2 1 4 3 3 6 6 6 5 5 5 4 4 4 6 7 9 8 9 10 10 10 10 10 10 9 9 10 10 11 11 10 10 10 10 10 10 11 11 12 12 11 12 12 12 13 13 13 13 13 13 13 13 13 14 13 15 15
5 4 4 4 4 5 5 3 2 1 4 2 2 2 1 1 0 1 2 10 6 3 1 2 1 3 3 2 3 2 2 4 5 6 6 5 5 5 5 4 4 3 4 7 7 6 6 7 8 9 10 10 10 10 10 10 10 10 10 10 10 9 10 10 10 10 10 10 11 11 12 12 12 13 13 13 13 12 13 13 13 13 14 14 14
4 5 4 3 4 4 4 4 4 3 1 1 1 2 2 1 0 1 4 10 6 4 3 2 2 4 2 2 3 2 3 4 5 5 5 5 5 4 4 4 3 3 3 3 5 5 5 6 7 7 8 10 10 10 11 11 10 10 10 9 10 9 9 10 10 10 10 10 11 11 11 12 12 12 13 13 13 13 13 13 13 13 14 13 13
4 4 5 4 4 4 4 4 4 0 1 1 1 1 1 0 0 2 7 11 5 2 2 3 4 3 2 4 2 3 4 4 5 5 4 5 4 4 4 4 4 4 4 3 4 4 7 6 7 6 6 9 10 10 10 10 10 10 10 10 9 9 9 10 9 10 10 9 10 11 11 11 11 12 12 13 13 12 13 13 13 13 14 14 13
4 3 4 4 3 4 4 4 2 1 0 1 1 1 1 1 1 2 9 11 8 4 2 4 3 2 2 3 2 2 3 4 3 2 2 5 4 4 4 3 3 5 3 4 3 4 6 7 6 5 3 7 9 9 10 10 10 10 10 10 10 9 9 9 9 9 10 10 10 10 11 10 10 11 12 12 12 12 12 12 12 12 13 13 12
5 4 3 1 3 3 3 3 3 1 2 1 2 1 2 0 1 2 8 11 6 5 5 5 3 1 2 3 2 3 3 5 3 2 3 4 4 4 3 2 3 2 3 4 3 4 3 5 7 5 4 3 7 9 9 9 10 10 10 10 10 10 9 9 10 9 9 10 10 10 9 9 10 10 10 11 11 11 11 11 11 11 11 11 12
4 5 5 2 3 4 4 3 2 1 2 1 1 4 2 1 0 3 10 9 9 7 5 6 6 1 3 4 4 3 4 4 1 3 3 3 4 3 3 2 3 2 3 4 4 3 3 3 3 2 2 2 4 8 8 9 10 11 11 11 11 11 11 11 11 10 9 10 11 10 9 9 9 9 9 9 9 9 10 10 10 9 9 9 9
5 4 4 3 3 3 4 3 2 1 1 1 0 1 5 5 2 3 12 7 6 6 5 5 5 4 5 4 4 2 3 2 1 2 3 3 3 3 3 2 3 2 2 3 3 3 3 3 3 3 2 1 3 5 6 6 6 7 11 10 11 12 12 11 12 11 10 10 10 10 9 8 9 9 9 9 8 8 8 9 8 8 8 8 8
4 5 5 2 4 3 2 3 3 2 2 2 2 3 3 4 5 4 9 9 5 6 7 6 8 6 5 5 5 4 3 2 4 4 4 3 3 3 3 4 3 3 2 3 3 3 3 3 4 4 4 3 3 4 5 4 7 8 7 8 6 10 10 12 12 12 11 11 11 9 8 8 9 9 9 9 9 8 8 8 8 8 8 8 8
4 4 4 3 3 3 2 0 2 3 3 1 1 5 3 2 2 4 5 6 3 6 9 7 3 6 6 4 5 5 3 2 4 4 4 4 3 3 3 3 4 2 2 4 3 2 3 3 2 4 3 3 3 2 2 2 3 5 6 6 8 8 8 11 13 13 11 12 11 10 8 11 11 10 9 10 10 10 10 10 9 9 8 8 8
5 5 4 4 3 3 4 3 2 3 3 3 1 3 5 4 4 7 6 5 3 3 6 2 6 5 5 6 4 3 1 2 4 5 3 1 1 2 2 3 4 2 3 3 3 2 2 3 3 3 2 3 3 2 1 1 1 3 3 6 7 8 9 10 13 13 13 12 11 10 9 9 10 9 9 9 9 8 7 6 7 7 7 5 5
5 5 3 4 3 2 2 5 4 6 5 4 3 3 3 3 4 6 8 9 4 3 4 4 5 9 4 2 4 3 5 1 3 2 2 1 2 1 1 2 3 3 2 4 4 3 2 3 3 2 2 3 4 2 1 1 3 3 2 2 5 8 9 11 12 13 13 12 12 11 10 9 9 8 7 6 5 6 6 5 4 8 10 13 15
5 5 5 5 5 3 3 2 2 4 5 5 5 6 5 5 4 5 6 7 5 2 0 3 6 4 6 4 2 1 2 3 4 2 1 1 1 1 1 1 2 3 3 2 2 2 2 3 2 2 2 3 4 3 3 3 2 2 2 4 4 7 9 11 13 14 14 14 13 11 10 10 8 5 5 4 5 6 8 11 14 14 15 15 15
6 6 5 5 4 4 6 5 3 5 4 6 2 2 5 5 4 5 5 4 6 5 2 0 2 4 4 4 4 5 7 6 3 3 0 1 0 1 1 0 1 2 1 2 2 2 2 3 3 2 2 3 3 3 2 2 1 2 1 1 4 3 7 10 12 13 14 14 13 12 11 10 7 7 8 11 13 13 13 14 14 14 14 14 14
5 5 5 5 5 5 4 5 7 6 4 6 8 6 5 4 5 5 5 6 6 6 6 3 1 0 2 2 1 1 8 8 3 5 4 1 1 1 1 1 0 1 1 2 2 2 2 4 4 4 4 5 4 4 4 3 4 3 3 3 5 5 7 7 11 12 12 13 12 11 12 12 12 12 12 13 14 13 13 13 13 14 14 13 14
6 6 7 7 5 5 6 6 6 8 5 5 5 5 5 3 4 5 5 6 7 8 6 5 6 3 1 2 1 5 5 3 5 6 6 6 2 1 1 1 2 2 2 3 3 4 5 4 5 5 5 5 4 4 4 3 3 2 2 5 6 7 7 8 10 9 9 10 9 11 11 13 13 13 13 12 12 12 12 12 13 13 13 14 14
6 7 8 9 7 6 6 6 7 5 6 5 4 5 5 4 5 6 5 5 5 6 6 6 4 5 3 1 3 4 3 3 5 4 4 5 3 4 3 0 0 1 2 1 3 4 5 5 5 5 6 5 5 4 4 4 4 3 3 7 8 9 9 9 10 10 9 8 10 11 12 15 15 14 14 13 13 12 12 12 12 13 13 14 14
5 9 9 8 8 7 6 4 5 4 5 5 5 5 4 6 5 6 5 4 3 6 7 5 5 4 4 4 4 4 4 2 1 3 3 1 7 6 5 5 4 3 1 3 3 3 6 5 5 5 5 5 5 5 4 4 4 4 5 9 9 10 11 10 10 11 11 9 11 13 15 15 14 14 13 13 12 12 12 13 13 14 14 14 14
6 10 10 11 9 8 7 6 5 4 6 3 5 6 5 6 7 6 5 5 4 5 5 4 5 5 3 5 6 7 6 4 6 4 4 3 5 5 4 3 4 5 2 3 3 5 6 5 5 5 5 5 5 5 4 4 4 5 9 10 10 11 11 12 12 12 12 12 13 13 14 14 13 13 12 12 12 12 13 13 14 14 14 14 14
6 7 8 8 9 7 7 7 6 4 5 5 5 6 6 6 6 6 6 4 4 6 5 5 4 4 3 4 5 5 3 5 5 6 6 6 8 7 6 3 3 1 2 1 3 7 6 5 4 5 5 5 5 5 5 5 5 8 7 9 10 11 11 11 12 12 13 12 12 14 14 14 13 13 13 12 13 13 13 14 13 13 13 13 14
6 7 7 7 7 7 7 7 7 6 6 6 4 6 5 6 6 6 6 6 6 6 6 5 6 6 5 3 5 4 4 3 5 5 4 6 7 8 3 5 4 3 3 3 2 2 3 5 5 5 6 5 5 5 4 5 4 6 7 7 10 10 11 11 10 10 10 10 11 12 12 13 13 13 13 13 13 12 11 10 8 8 8 11 12
7 7 7 7 6 7 7 7 7 7 7 7 6 5 5 6 6 6 7 6 5 5 5 5 6 5 5 5 4 3 3 3 4 5 6 7 7 8 7 3 4 5 3 2 3 4 1 3 5 5 5 5 5 5 4 5 4 7 8 5 7 9 10 11 9 10 11 11 11 11 10 10 10 10 11 12 11 11 10 10 10 10 10 9 9
7 6 7 7 6 5 6 6 5 7 6 6 6 6 5 5 6 6 6 6 5 5 5 6 6 6 4 6 5 4 5 5 5 5 5 7 7 8 8 9 4 4 4 2 5 2 5 3 6 4 5 5 5 5 5 4 5 8 8 5 4 9 10 11 11 9 11 11 11 11 11 11 11 11 11 10 10 10 8 8 9 9 9 9 8
6 6 6 6 6 7 6 6 5 6 7 7 6 6 5 6 5 6 6 4 6 6 5 6 6 6 6 5 6 5 5 5 4 5 5 6 7 6 6 8 10 7 4 4 3 2 4 5 2 3 6 5 4 5 5 6 4 7 7 4 4 5 9 10 11 9 11 10 10 11 11 11 11 10 10 9 8 7 8 8 7 8 8 7 7
6 5 7 6 6 6 6 6 6 5 6 7 7 6 5 6 6 5 6 5 5 5 5 5 4 5 5 6 6 6 5 5 4 4 5 4 6 6 6 7 6 9 7 6 5 5 4 7 6 2 3 4 5 5 6 4 5 5 3 3 4 3 7 10 10 10 10 10 10 10 10 10 10 9 9 8 9 9 7 7 7 7 7 7 7
6 6 7 6 6 6 6 5 5 5 5 5 6 5 5 6 5 6 5 5 4 3 3 5 5 4 4 5 5 6 4 5 5 4 4 5 5 6 7 6 7 8 5 7 6 4 6 4 2 5 4 5 5 4 5 4 6 6 3 3 3 3 7 9 10 10 10 10 9 9 9 9 8 8 8 8 8 8 8 7 6 6 5 6 7
7 7 6 6 6 6 6 5 5 4 4 5 5 4 5 6 5 6 5 5 6 5 3 4 4 4 4 5 4 4 4 3 3 4 5 5 5 5 4 2 5 6 6 6 6 4 5 6 2 4 8 6 6 5 4 4 5 5 4 3 3 5 6 5 8 8 8 9 9 8 8 8 7 7 7 7 6 7 6 6 6 5 6 6 5
6 6 6 7 6 6 5 5 4 4 6 5 4 5 5 5 5 6 6 6 6 5 4 4 4 4 5 5 4 4 3 3 4 4 4 3 2 4 5 3 3 5 7 6 6 7 3 5 6 6 8 8 6 6 5 4 4 7 4 3 3 5 3 2 4 6 6 7 7 7 8 8 7 6 6 6 6 6 6 6 6 6 6 7 6
7 6 7 7 7 6 5 4 4 4 4 4 5 5 4 4 4 5 4 6 6 5 5 5 4 5 5 4 4 4 3 4 3 1 2 3 4 5 5 5 4 5 6 4 6 5 2 2 7 7 7 8 5 5 7 5 4 4 5 3 4 3 2 2 2 3 4 5 6 7 7 8 7 7 7 6 6 7 6 6 6 6 7 8 8
7 7 7 6 7 6 5 4 4 4 4 5 4 4 4 4 4 4 4 5 5 6 5 5 5 4 5 5 4 4 3 3 2 2 3 2 2 4 6 7 6 6 4 4 3 4 5 3 3 4 7 6 6 6 9 8 5 5 5 4 3 3 3 3 3 3 6 6 7 8 8 9 9 9 9 8 8 8 8 8 8 8 8 9 8
6 6 6 7 7 6 5 4 4 4 5 4 3 5 6 5 4 3 5 6 5 5 5 6 6 5 5 5 4 4 3 2 1 2 1 1 3 5 5 5 6 4 3 6 5 4 8 5 5 7 6 5 7 8 7 8 8 8 7 6 6 5 4 4 5 4 8 9 10 10 11 11 12 12 11 11 10 10 9 9 9 8 8 8 8
6 4 7 6 6 6 5 5 4 4 4 4 4 5 5 5 6 5 5 5 4 4 5 6 7 6 6 5 4 4 3 2 2 3 2 1 2 5 4 4 4 4 3 5 6 6 4 7 5 8 7 8 4 7 7 8 9 8 8 6 6 6 5 6 6 6 8 13 13 13 13 12 12 12 12 13 13 12 11 10 9 8 8 8 7
5 6 6 5 6 6 6 5 4 4 4 4 5 4 4 5 6 5 5 4 4 4 4 6 6 6 5 6 5 4 3 2 3 2 1 3 4 6 7 6 6 6 4 5 5 5 6 7 5 4 7 6 6 7 8 9 6 6 5 8 9 9 8 8 7 8 11 16 16 16 14 13 13 13 13 13 13 13 12 11 10 9 8 8 8
6 7 6 4 6 6 6 5 4 4 4 4 5 4 4 4 4 4 4 5 6 3 5 4 5 5 5 4 4 3 3 4 2 2 4 4 4 4 5 5 5 5 6 4 4 4 5 6 6 4 4 5 4 5 9 9 9 7 6 6 6 8 8 7 8 8 8 8 7 9 11 12 14 15 15 14 13 12 11 11 11 10 10 10 9
6 6 5 6 5 5 5 4 4 5 7 7 4 3 4 4 5 6 6 6 6 4 4 5 5 5 4 4 3 2 3 4 5 4 4 5 5 4 4 6 4 6 5 4 6 6 6 5 3 4 7 5 6 8 7 10 10 10 10 7 7 7 7 9 9 9 7 9 12 16 14 14 14 12 13 14 12 12 11 11 11 12 12 11 10
5 5 5 7 6 4 8 10 8 8 8 8 7 6 4 4 4 5 5 4 5 5 5 4 5 4 4 3 3 3 5 4 5 4 4 5 5 6 5 4 5 4 3 3 4 4 4 2 2 2 2 5 0 1 4 4 4 3 5 7 11 9 9 10 11 10 9 8 8 9 10 9 8 11 12 12 13 13 13 12 13 12 13 12 12
4 4 5 7 10 10 9 10 10 9 9 7 6 5 4 5 4 4 4 5 6 5 4 5 5 5 5 5 5 5 7 9 12 10 8 6 6 6 4 5 5 5 4 5 5 6 5 5 1 1 2 1 0 5 6 5 7 10 7 5 7 9 9 8 10 9 8 10 9 8 8 10 10 9 8 7 10 12 11 12 9 13 13 12 12
4 4 6 10 10 10 10 10 10 9 7 5 7 8 5 5 5 5 3 4 5 6 8 7 6 6 6 6 7 12 12 12 11 13 13 13 11 7 5 5 5 5 4 5 6 4 5 4 2 2 2 2 1 1 3 5 4 0 1 3 4 5 2 5 6 6 6 6 6 8 10 8 9 8 6 9 9 8 8 7 9 10 12 13 13
9 10 12 10 9 9 9 10 10 8 6 5 8 7 10 11 7 6 6 5 3 5 7 8 7 6 5 6 5 8 9 9 8 10 11 12 11 11 10 8 6 4 5 6 4 4 3 4 0 1 1 3 4 5 4 4 6 6 5 2 3 2 2 4 6 4 4 8 7 7 7 5 7 9 9 9 8 6 7 9 12 14 14 15 15
10 11 11 9 9 9 9 10 10 7 6 8 8 9 10 10 7 5 6 6 6 6 6 8 7 7 7 8 8 7 8 8 4 4 7 7 8 8 8 9 10 10 7 5 3 3 2 2 2 0 1 2 3 3 3 1 4 4 5 7 6 5 3 4 4 4 4 8 7 6 8 4 7 8 7 8 7 7 10 13 15 15 16 14 14
10 11 9 10 9 8 9 11 9 7 7 9 9 9 9 10 9 6 6 6 8 8 8 8 7 6 6 8 7 6 5 12 9 7 3 3 4 6 8 9 9 9 8 8 6 2 4 2 2 2 2 1 1 2 3 2 1 2 1 2 4 6 6 6 7 6 5 8 8 8 8 5 8 9 9 9 8 8 9 9 11 13 13 15 15
10 10 10 10 8 9 8 9 8 7 7 9 10 9 7 9 8 6 5 7 9 9 8 7 7 7 6 6 6 5 6 8 9 9 8 6 5 4 4 4 4 5 6 6 6 3 1 1 1 2 2 1 3 3 2 1 3 3 1 1 1 1 1 4 4 4 2 2 7 2 3 5 5 7 9 8 7 8 8 10 14 18 18 15 15
9 9 8 9 8 7 7 7 8 8 6 10 11 12 11 10 7 6 7 7 8 8 7 6 6 6 6 6 5 6 6 6 7 6 5 5 4 3 4 4 3 3 2 1 0 0 1 1 2 3 4 3 3 1 0 1 2 2 4 3 6 6 5 3 5 5 4 2 5 6 7 3 3 4 7 8 6 7 6 11 17 17 16 17 16
9 9 9 8 8 8 7 8 8 8 7 13 12 12 12 10 8 6 7 8 8 7 7 6 6 5 4 5 7 8 8 8 5 6 2 4 2 3 3 3 3 4 3 1 3 3 3 3 3 3 3 1 2 2 2 3 1 2 2 5 6 7 6 6 7 4 5 4 6 4 1 8 6 9 8 4 4 5 4 4 11 16 17 17 17
9 9 9 8 7 8 9 9 9 8 8 12 13 12 9 8 5 5 6 7 7 8 8 7 7 7 7 6 7 7 7 5 5 7 7 4 4 3 3 3 4 4 6 5 4 3 5 6 7 6 6 7 7 8 8 9 6 3 3 2 6 6 8 7 7 5 7 3 3 7 5 6 4 7 3 2 3 3 4 5 4 10 14 15 14
9 8 8 9 9 8 10 10 8 9 8 11 14 12 11 10 7 6 6 8 8 8 8 7 7 8 10 12 9 8 7 5 6 8 8 4 5 3 2 2 3 5 5 5 5 4 3 4 6 8 7 8 8 9 9 9 6 4 5 6 4 1 5 5 6 5 5 2 3 0 2 3 1 1 1 2 1 1 3 3 3 5 9 10 14
8 7 7 9 8 8 8 8 10 10 8 10 13 13 14 12 9 6 7 7 8 7 7 7 7 7 7 9 11 8 6 4 6 8 9 5 4 3 2 2 2 2 3 5 6 6 7 7 6 3 4 5 5 5 6 8 8 6 6 6 4 2 3 3 3 3 4 3 5 5 2 2 2 1 2 0 2 3 2 2 1 1 3 5 6
Wind_Direction
97 135 146 149 140 132 166 192 190 181 167 206 186 197 203 202 203 193 198 234 254 267 225 93 111 114 108 141 91 92 93 120 126 123 118 120 115 122 118 117 126 124 123 124 121 119 119 117 116 116 107 102 103 108 113 109 106 109 105 106 102 103 104 100 98 98 98 96 92 91 92 91 85 86 86 82 82 80 77 75 72 71 71 70 69
98 64 111 100 84 172 297 238 199 179 178 203 215 188 198 198 187 180 203 229 213 63 65 105 101 116 92 109 94 91 92 119 127 127 126 120 113 117 122 120 118 122 125 129 125 123 122 116 111 110 113 117 114 107 103 103 104 104 107 106 105 100 94 93 97 97 93 93 96 93 91 92 95 96 87 83 87 85 79 74 74 73 75 76 75
89 95 100 113 126 127 115 28 328 265 192 198 193 196 198 182 193 200 206 196 97 70 88 87 112 76 103 115 119 119 107 105 130 126 125 121 114 115 126 128 123 121 135 125 118 120 116 117 121 118 120 123 122 117 114 113 109 104 105 108 103 105 107 106 104 100 97 93 92 93 90 90 91 91 93 91 87 85 84 80 76 76 78 78 80
97 107 105 108 117 116 126 118 112 352 286 129 141 143 156 154 146 157 149 113 65 66 133 125 108 95 100 122 152 121 87 82 122 125 125 117 113 110 114 120 124 125 112 106 116 121 126 130 127 121 117 119 125 124 118 116 116 113 111 116 116 107 101 102 101 102 100 98 97 97 98 99 96 95 93 94 94 89 83 81 78 78 80 80 81
111 115 113 116 116 104 97 101 125 51 290 84 91 61 68 56 48 83 88 78 97 239 14 44 80 83 81 86 65 90 103 94 116 126 125 118 114 114 114 119 123 117 111 111 116 132 136 131 131 130 125 123 119 120 122 123 123 124 125 121 115 108 110 111 112 112 111 108 105 101 102 100 94 92 92 94 96 93 90 87 84 81 80 81 79
119 118 109 111 116 126 135 148 149 146 287 23 109 105 130 96 265 89 71 91 115 140 98 88 42 66 84 82 71 79 106 87 106 122 118 116 118 118 122 114 120 123 113 122 129 131 131 127 123 124 129 129 128 127 130 131 128 126 125 118 113 117 115 110 107 106 104 107 108 108 103 101 100 98 96 95 95 96 93 90 89 88 86 81 80
121 131 135 134 128 149 147 160 139 223 339 359 305 162 138 197 172 181 78 106 143 156 157 153 122 66 26 55 88 71 75 89 88 103 112 116 117 122 116 121 126 125 112 104 121 132 137 131 120 116 128 133 138 136 137 134 133 130 126 123 124 123 119 117 115 112 113 112 113 113 113 110 108 105 101 97 95 94 92 91 91 91 89 87 85
128 127 124 140 154 154 162 139 158 158 270 295 228 130 153 82 108 132 94 110 122 110 176 135 77 75 26 47 70 80 98 90 76 87 106 109 107 110 116 119 116 128 135 122 112 114 106 108 103 116 130 138 140 140 138 136 133 131 128 129 129 125 122 122 121 120 120 118 110 105 103 104 105 103 102 100 97 93 91 92 92 92 90 89 88
126 117 112 133 155 142 148 133 120 101 274 352 23 96 94 353 27 80 104 117 129 148 108 75 70 58 47 54 42 61 72 90 60 23 66 112 115 117 118 124 131 130 129 138 121 115 116 124 128 126 122 121 132 136 141 139 140 138 137 135 135 132 129 128 124 124 124 121 118 115 110 109 109 107 105 106 105 99 98 96 93 91 94 92 90
141 139 125 141 142 125 106 111 114 121 130 77 28 29 176 44 114 57 102 115 125 137 141 100 71 29 58 73 61 59 54 58 92 143 131 111 113 124 133 114 94 102 125 137 127 115 113 112 104 93 88 89 133 140 140 142 143 145 145 143 139 137 141 137 134 132 126 123 116 113 114 112 108 109 110 110 111 112 109 106 102 101 96 95 92
141 143 137 132 126 125 119 119 114 164 105 81 94 169 180 90 358 81 75 115 144 160 139 117 124 181 85 73 69 57 26 23 30 107 108 108 124 124 115 120 106 94 90 115 131 131 121 114 111 101 81 93 145 141 143 148 150 153 155 155 152 149 150 145 140 139 131 122 121 116 113 114 114 112 113 113 110 111 110 107 108 105 101 98 98
138 138 133 113 119 126 133 128 138 145 116 117 166 106 155 138 174 148 105 105 117 127 110 115 110 104 88 78 85 91 100 110 121 133 93 91 105 116 122 123 95 77 76 95 105 124 118 127 140 143 127 113 108 130 147 152 136 157 161 163 157 154 156 152 147 141 136 129 123 122 124 122 120 118 115 112 112 110 112 112 112 110 107 106 103
145 140 131 146 127 122 120 142 142 150 151 193 174 127 151 140 206 100 111 116 123 130 138 167 124 90 72 80 68 64 74 56 85 65 75 78 78 105 127 108 101 117 107 103 107 109 106 110 109 127 117 102 85 80 94 106 139 173 164 178 170 149 154 151 147 142 141 137 131 131 128 136 139 125 120 117 113 112 110 113 112 110 109 108 106
150 147 144 115 119 101 98 101 160 179 184 135 151 140 159 196 131 83 79 120 126 171 168 143 94 130 131 97 74 61 50 24 73 70 60 75 124 162 125 119 122 146 122 98 104 102 117 113 87 98 126 114 94 78 72 82 72 137 158 174 167 174 177 149 147 143 144 142 140 132 130 112 114 116 118 120 120 114 113 114 114 111 110 109 111
153 144 135 131 132 167 139 91 330 227 164 141 121 137 133 224 125 120 104 87 148 173 185 166 129 132 118 108 136 123 115 48 77 57 50 46 85 89 133 152 143 150 143 122 112 129 135 129 107 84 82 92 102 112 75 20 130 121 134 176 181 162 189 154 150 147 146 145 143 139 128 128 125 124 127 122 119 122 122 116 122 123 111 103 91
144 139 140 129 148 171 126 135 191 221 174 157 150 147 169 170 120 123 127 133 151 201 233 198 145 142 156 163 174 131 132 143 102 55 40 50 81 96 124 141 121 131 136 140 150 148 146 104 93 97 109 100 88 34 122 125 123 107 120 110 163 178 180 166 153 153 149 147 145 142 144 142 134 126 116 108 113 127 133 137 97 99 107 88 84
155 156 151 152 168 160 121 168 198 241 167 157 171 172 173 150 139 121 136 142 139 155 324 159 158 165 141 121 81 152 196 147 127 47 16 352 31 96 144 130 105 124 145 140 136 135 113 87 79 82 105 126 125 175 144 135 132 155 151 173 182 189 184 169 168 157 151 150 151 151 155 147 129 114 104 101 115 109 106 109 98 90 86 87 86
163 160 151 157 153 147 169 163 131 261 202 144 100 180 146 143 133 121 127 143 141 127 137 314 167 138 153 165 169 170 152 168 141 149 292 41 328 63 63 7 104 113 126 145 155 155 121 124 138 135 91 92 107 96 81 89 111 81 84 157 178 173 169 172 166 166 158 157 157 158 148 135 125 127 125 119 112 106 102 98 99 98 96 95 94
172 158 150 164 165 175 157 161 170 200 209 142 167 171 157 155 135 136 154 144 137 137 157 184 73 112 154 163 187 143 141 139 162 118 126 119 42 17 12 322 331 105 193 203 203 152 145 127 123 114 109 105 98 93 88 83 81 74 82 109 123 134 142 155 163 172 168 163 157 148 145 133 125 119 116 113 107 105 103 103 104 105 104 103 101
174 172 169 167 173 167 178 175 191 189 171 154 157 160 146 154 145 148 152 152 152 149 165 171 161 205 178 161 84 99 129 96 128 148 130 140 143 86 74 283 267 248 222 177 146 137 121 113 107 103 103 96 91 88 89 85 74 63 75 101 104 110 120 138 148 160 172 160 149 148 146 128 124 121 120 113 111 112 113 112 108 106 106 103 99
186 181 161 167 172 170 176 177 186 178 155 155 153 152 158 154 127 133 147 155 153 155 149 179 166 175 150 203 103 106 99 95 125 118 135 134 130 161 162 303 72 276 283 235 142 119 113 121 116 105 103 101 89 83 77 76 70 72 81 90 93 99 106 110 123 145 147 152 159 146 140 126 122 120 115 115 115 114 111 108 105 103 100 98 96
179 161 166 165 171 172 169 165 173 153 147 160 157 149 149 123 137 135 138 136 142 146 157 173 172 173 178 160 129 115 85 76 102 109 78 145 154 165 173 161 152 235 215 138 140 100 110 120 115 105 99 98 92 88 83 81 85 83 89 92 94 98 103 108 113 126 141 145 141 143 133 127 126 124 122 123 120 117 115 111 108 104 101 97 95
156 156 164 167 172 172 165 166 152 141 152 144 152 147 137 137 137 130 134 139 142 134 140 156 154 166 179 154 152 155 161 160 174 159 152 140 114 144 164 176 157 140 172 162 139 100 125 124 116 101 104 100 94 89 87 86 77 94 99 96 97 99 101 104 109 115 125 135 135 131 128 127 129 128 125 122 121 119 116 113 110 108 104 101 99
152 146 154 158 156 158 161 153 152 147 139 124 130 139 141 137 137 138 145 150 149 144 150 155 147 138 148 136 150 159 147 147 169 158 152 161 150 149 159 148 102 93 130 83 72 125 136 136 122 114 112 107 103 100 97 97 96 98 94 98 99 100 102 104 104 105 106 109 118 128 131 132 131 129 128 126 124 122 122 119 116 114 111 109 106
140 131 142 143 139 140 147 147 148 155 146 141 144 134 139 132 140 144 149 158 169 161 158 163 150 144 152 136 134 140 155 149 145 155 146 137 141 143 155 154 139 141 123 127 88 72 133 133 121 122 118 113 114 114 114 105 110 107 101 97 103 100 102 101 99 102 106 117 124 128 131 133 133 131 129 131 126 116 102 89 85 87 107 113 110
133 134 138 131 132 137 138 141 142 147 149 150 147 145 143 142 149 156 162 167 164 158 156 148 143 147 141 139 148 154 156 150 159 142 146 142 151 152 148 143 138 138 130 107 126 119 176 137 125 129 130 127 123 123 119 121 117 114 106 102 100 105 106 107 104 107 108 104 100 99 106 113 117 118 119 113 103 101 101 99 89 84 76 78 95
136 142 131 132 137 126 140 144 142 143 149 146 147 143 143 137 154 160 157 159 167 156 154 147 146 148 141 148 148 142 149 158 153 165 147 157 154 158 152 143 134 132 140 123 158 197 154 130 140 142 138 139 141 135 131 128 126 117 109 104 103 115 115 115 115 112 113 112 111 112 110 111 113 113 114 115 113 111 102 95 98 92 86 82 74
143 138 136 137 129 127 123 133 139 135 140 146 147 150 153 140 145 151 156 164 161 159 166 158 157 155 156 146 130 149 157 157 154 154 143 152 150 159 152 157 149 151 135 138 165 167 151 124 109 144 144 146 150 139 131 122 124 123 109 114 119 120 123 121 121 117 122 123 125 124 123 122 123 124 125 124 118 109 110 109 107 108 103 96 86
142 129 130 126 125 117 116 122 131 136 136 141 149 161 154 146 150 145 154 160 154 159 157 153 156 145 144 148 149 153 162 159 160 156 152 159 150 156 166 161 162 143 148 154 195 152 173 153 143 189 153 146 144 150 132 140 138 126 116 118 126 129 134 129 128 129 130 132 133 135 132 131 131 134 134 130 130 127 121 121 119 119 117 111 109
131 130 126 123 115 116 109 107 117 126 143 138 148 152 135 152 154 148 158 146 141 141 148 141 146 137 131 134 147 149 160 152 168 173 165 170 161 169 165 161 152 151 153 155 181 182 156 194 162 139 165 152 145 143 138 141 150 131 124 125 127 139 144 136 136 135 137 136 135 134 138 139 143 144 143 138 135 134 135 133 130 132 133 132 125
119 127 119 112 121 117 111 109 120 130 113 130 150 133 125 144 148 141 149 139 137 151 155 140 155 145 139 139 139 128 139 153 172 181 174 167 166 148 159 146 159 148 146 146 143 219 162 162 133 150 151 162 152 147 135 137 153 132 127 124 132 148 144 143 144 144 142 140 138 141 144 152 154 153 152 150 145 147 150 150 150 153 157 144 143
127 128 117 121 121 118 116 120 127 128 137 144 131 129 131 134 138 135 142 138 141 149 150 157 154 143 139 139 137 138 150 146 165 170 178 146 138 163 173 193 174 153 140 133 128 164 185 147 146 148 151 148 151 140 138 148 145 141 139 136 134 143 134 141 154 149 144 143 149 155 159 157 166 168 169 168 166 167 170 174 176 182 162 152 165
127 125 124 127 124 118 121 130 137 140 120 132 136 137 135 140 144 156 150 143 142 153 150 154 152 140 139 129 134 156 159 161 184 157 160 183 173 156 182 169 164 156 136 121 122 119 58 121 141 151 155 139 145 150 146 152 148 141 135 133 141 152 150 151 146 159 159 166 174 182 175 171 178 182 180 184 181 187 185 188 195 184 169 175 181
130 132 131 128 124 128 135 146 146 130 130 142 148 128 135 138 156 163 145 142 137 148 149 151 156 146 129 126 140 156 152 160 151 206 188 192 168 158 159 158 159 162 150 104 134 119 136 115 120 132 148 156 142 172 156 159 168 146 140 150 161 179 161 161 165 193 204 199 202 205 196 189 190 197 188 198 193 196 194 195 196 189 186 184 187
130 129 135 135 132 137 133 141 141 133 144 157 129 130 150 144 124 100 114 128 139 149 143 148 151 138 128 136 158 165 145 154 211 236 239 177 207 165 151 156 158 154 119 126 120 116 141 172 170 151 162 167 163 178 179 169 165 159 155 168 174 191 177 176 190 203 209 212 214 216 211 203 201 200 196 197 200 203 202 201 205 201 201 194 193
121 128 131 136 132 140 133 137 154 145 152 131 137 148 131 117 127 125 116 124 124 127 138 137 140 139 144 144 166 168 156 173 256 256 180 170 101 102 115 119 123 114 109 120 130 131 158 145 192 166 176 160 188 173 168 165 160 168 171 172 174 187 188 187 197 205 208 211 217 218 218 215 211 211 207 202 201 203 204 206 208 209 207 207 202
117 134 125 121 123 132 136 143 154 137 153 126 133 115 100 136 136 133 127 117 115 110 115 133 134 134 140 155 160 141 134 173 246 274 45 32 109 133 123 127 123 129 112 120 140 141 143 154 176 210 173 169 167 168 169 165 169 167 169 172 184 192 198 198 200 211 209 209 216 218 218 217 217 217 216 215 211 205 201 201 203 207 209 208 205
123 130 129 127 124 134 137 151 139 147 151 132 131 133 107 101 107 119 125 119 112 119 107 112 127 131 144 155 143 118 150 170 148 102 81 79 75 82 99 114 123 110 115 134 130 109 139 178 157 170 201 163 142 174 183 178 169 166 180 193 194 200 199 202 211 210 209 205 213 223 225 227 226 221 219 219 220 216 210 204 201 202 206 204 200
116 136 116 131 133 137 144 123 91 77 52 40 42 78 96 90 91 116 128 135 134 144 131 131 128 125 133 147 132 149 136 113 88 83 91 75 83 72 87 106 112 103 98 121 139 156 176 183 163 175 191 219 154 179 196 190 184 175 175 177 210 213 208 204 211 218 214 213 214 208 206 207 212 214 221 223 222 222 219 212 205 205 205 199 194
121 127 133 137 149 93 80 79 74 71 62 42 32 20 37 83 91 87 107 122 129 141 152 143 137 129 116 95 97 94 84 79 97 83 76 83 60 59 17 90 113 105 91 70 89 104 136 159 150 157 230 216 173 43 176 155 184 248 205 182 195 203 212 215 214 207 216 209 211 217 224 223 233 227 226 225 224 222 219 214 210 207 207 196 188
110 129 140 112 87 88 81 82 79 70 61 49 30 10 12 45 49 85 91 99 109 118 107 98 100 99 93 90 80 75 80 79 75 77 65 72 92 72 38 60 60 79 74 70 91 102 97 110 87 97 92 67 223 111 142 188 200 206 207 187 213 211 209 209 228 221 209 205 217 210 212 205 211 216 211 217 225 219 225 214 214 215 210 196 188
102 97 82 85 101 97 92 79 76 70 62 53 28 15 357 66 54 40 51 90 96 105 102 105 101 98 99 93 85 84 77 73 76 75 73 76 76 86 95 80 88 88 89 74 54 65 97 96 120 112 43 335 282 279 163 191 191 43 281 203 228 236 272 268 278 250 210 199 195 214 225 205 203 217 204 223 228 201 219 206 215 205 204 196 190
75 73 78 83 84 85 85 86 74 68 60 38 16 27 43 49 59 66 65 32 45 108 110 112 118 106 88 78 75 70 67 52 47 63 92 97 98 96 91 92 92 102 98 80 76 79 82 95 91 101 154 210 241 214 231 187 175 174 193 194 197 223 187 198 234 279 206 184 200 217 240 201 183 213 217 225 223 203 215 221 217 207 201 196 190
80 82 80 83 83 85 86 80 75 63 63 22 17 29 44 50 49 63 65 62 52 42 57 75 77 73 79 74 66 67 56 46 49 56 44 45 79 89 89 82 75 64 73 114 127 74 105 98 65 226 176 223 246 241 242 228 233 229 197 178 205 183 199 222 219 231 227 174 188 200 239 199 183 208 229 230 217 211 216 219 211 204 204 196 189
81 79 83 79 75 77 82 81 74 59 47 16 15 19 36 50 41 51 63 67 70 68 66 73 81 86 90 90 89 79 73 54 37 10 34 64 71 96 100 93 76 80 70 53 38 122 158 138 169 219 194 192 294 272 217 228 188 203 275 231 223 214 220 226 241 245 256 190 183 204 232 216 175 200 217 227 218 214 222 216 210 207 203 196 190
78 79 73 73 70 65 69 81 80 63 47 9 13 13 19 55 45 49 62 70 80 83 84 86 88 88 81 89 93 88 76 64 53 16 350 2 9 39 44 54 71 84 88 106 108 80 126 162 171 238 241 194 236 222 230 204 172 216 178 288 328 321 259 227 215 199 246 138 186 194 253 259 216 201 219 230 200 212 207 191 203 204 201 189 185
79 75 75 73 69 72 69 75 73 57 37 12 23 16 11 27 50 68 61 74 86 84 83 81 83 92 98 94 88 89 87 79 72 58 345 343 350 40 43 16 15 18 27 53 85 211 214 195 182 206 246 242 215 192 192 63 123 72 28 2 324 306 283 301 332 282 271 228 164 169 234 260 232 204 236 229 202 211 204 204 206 202 189 187 183
82 82 72 71 70 66 61 64 66 53 27 19 25 19 11 2 23 58 71 93 97 95 82 76 68 54 60 79 84 67 55 43 40 72 347 281 34 66 34 353 350 344 332 142 270 257 247 246 243 243 241 227 215 223 245 273 291 113 208 275 275 265 267 258 248 263 231 237 165 133 206 250 210 200 234 227 165 215 223 207 205 193 188 185 183
80 74 73 66 64 71 68 62 66 54 34 16 22 19 12 359 35 58 83 89 88 82 73 65 60 54 50 57 70 81 76 68 10 34 8 23 64 54 33 348 338 340 333 357 1 318 267 253 247 254 248 244 236 235 236 233 214 206 154 203 256 246 252 251 255 257 254 236 248 194 208 249 218 199 224 250 178 200 212 213 183 196 188 184 175
73 69 80 77 65 66 70 67 65 67 44 21 24 24 28 29 48 70 82 92 88 84 77 59 62 65 53 56 75 76 71 49 17 37 34 65 77 64 41 10 341 344 338 346 347 340 327 272 270 260 261 259 254 260 258 256 239 166 167 214 229 211 242 231 254 264 296 328 264 215 195 248 247 115 127 337 359 300 209 204 162 160 165 157 159
85 88 80 80 76 65 64 71 63 66 56 34 34 43 44 42 52 52 63 78 86 87 95 86 74 72 57 46 52 61 75 77 48 40 32 45 80 62 54 59 26 349 314 332 336 337 334 336 322 312 281 256 252 250 257 250 242 209 208 224 237 223 243 255 252 293 317 328 338 340 256 292 91 303 96 70 314 322 23 358 345 143 153 150 161